Location: Gu�tanj
(46.5431°N, 14.9692°E)
Time: 05:47:20
(UTC+00:00)

Cosmos 1486 Rocket - Pass Details

Date: 03 March 2021
Orbit: 758 x 784 km, 74.1° (Epoch: 18 April)

Event Time Altitude Azimuth Distance (km) Brightness Sun altitude
Rises 17:52:36 0° 335° (NNW) 3,255 7.7 -11.7°
Reaches altitude 10° 17:55:00 10° 333° (NNW) 2,328 6.9 -12.1°
Maximum altitude 18:00:13 65° 253° (WSW) 857 4.5 -13.0°
Drops below altitude 10° 18:05:27 10° 172° (S) 2,327 6.4 -13.9°
Sets 18:07:51 0° 169° (S) 3,254 7.1 -14.3°
